| time (UTC) | temp C | wind direction | speed KPH | gust KPH | rain 1hr cm | rain 24hr cm | rain mn cm | humidity % | barometer mb |
| 20260508121557 | 8 | 273 | 17.7 | 27.4 | 0.00 | 0.00 | 0.00 | 64 | 1006.6 |
| 20260508120048 | 8 | 260 | 16.1 | 33.8 | 0.00 | 0.00 | 0.00 | 66 | 1006.7 |
| 20260508114550 | 8 | 230 | 16.1 | 29.0 | 0.00 | 0.00 | 0.00 | 68 | 1006.8 |
| 20260508113057 | 7 | 276 | 17.7 | 25.7 | 0.00 | 0.00 | 0.00 | 70 | 1006.6 |
| 20260508111543 | 7 | 276 | 11.3 | 22.5 | 0.00 | 0.00 | 0.00 | 71 | 1006.5 |
| 20260508110036 | 6 | 258 | 12.9 | 20.9 | 0.00 | 0.00 | 0.00 | 73 | 1006.3 |
| 20260508104532 | 6 | 273 | 8.0 | 16.1 | 0.00 | 0.00 | 0.00 | 74 | 1006.2 |
| 20260508103036 | 6 | 251 | 9.7 | 12.9 | 0.00 | 0.00 | 0.00 | 75 | 1006.0 |
| 20260508101528 | 5 | 286 | 6.4 | 12.9 | 0.00 | 0.00 | 0.00 | 76 | 1005.6 |
| 20260508100026 | 5 | 278 | 6.4 | 11.3 | 0.00 | 0.00 | 0.00 | 77 | 1005.4 |
| 20260508094525 | 4 | 302 | 6.4 | 12.9 | 0.00 | 0.00 | 0.00 | 78 | 1005.3 |
| 20260508093024 | 4 | 282 | 8.0 | 12.9 | 0.00 | 0.00 | 0.00 | 77 | 1005.2 |
| 20260508091527 | 5 | 273 | 9.7 | 14.5 | 0.00 | 0.00 | 0.00 | 76 | 1005.2 |
| 20260508090026 | 5 | 283 | 9.7 | 16.1 | 0.00 | 0.00 | 0.00 | 74 | 1005.0 |
| 20260508084523 | 5 | 297 | 9.7 | 19.3 | 0.00 | 0.00 | 0.00 | 73 | 1004.8 |
| 20260508083022 | 5 | 280 | 11.3 | 17.7 | 0.00 | 0.00 | 0.00 | 73 | 1004.9 |
| 20260508081552 | 5 | 287 | 9.7 | 16.1 | 0.00 | 0.00 | 0.00 | 73 | 1004.9 |
| 20260508080020 | 3 | 285 | 9.7 | 14.5 | 0.00 | 0.00 | 0.00 | 76 | 1004.9 |
| 20260508074519 | 5 | 306 | 6.4 | 9.7 | 0.00 | 0.00 | 0.00 | 72 | 1004.8 |
| 20260508073016 | 5 | 303 | 6.4 | 12.9 | 0.00 | 0.00 | 0.00 | 71 | 1004.8 |
| 20260508071534 | 5 | 297 | 9.7 | 16.1 | 0.00 | 0.00 | 0.00 | 71 | 1004.6 |
| 20260508070014 | 5 | 295 | 8.0 | 12.9 | 0.00 | 0.05 | 0.00 | 70 | 1004.6 |
| 20260508064513 | 5 | 289 | 9.7 | 14.5 | 0.00 | 0.05 | 0.00 | 70 | 1004.7 |
| 20260508063025 | 5 | 276 | 11.3 | 16.1 | 0.00 | 0.05 | 0.00 | 69 | 1004.8 |
| 20260508061511 | 6 | 287 | 8.0 | 11.3 | 0.00 | 0.05 | 0.00 | 67 | 1005.1 |
| 20260508060009 | 6 | 283 | 8.0 | 17.7 | 0.00 | 0.51 | 0.00 | 66 | 1005.0 |
| 20260508054508 | 6 | 287 | 12.9 | 20.9 | 0.00 | 0.51 | 0.00 | 68 | 1005.0 |
| 20260508053007 | 5 | 304 | 8.0 | 12.9 | 0.00 | 0.51 | 0.00 | 69 | 1005.4 |
| 20260508051503 | 5 | 295 | 9.7 | 16.1 | 0.00 | 0.51 | 0.00 | 71 | 1005.1 |
| 20260508044600 | 6 | 310 | 6.4 | 12.9 | 0.00 | 0.51 | 0.51 | 66 | 1005.4 |
| 20260508043058 | 6 | 303 | 9.7 | 16.1 | 0.00 | 0.51 | 0.51 | 66 | 1005.4 |
| 20260508041556 | 6 | 297 | 9.7 | 12.9 | 0.00 | 0.51 | 0.51 | 67 | 1005.5 |
| 20260508040059 | 5 | 330 | 8.0 | 12.9 | 0.00 | 0.51 | 0.51 | 71 | 1005.5 |
| 20260508034552 | 6 | 322 | 9.7 | 16.1 | 0.00 | 0.51 | 0.51 | 69 | 1005.6 |
| 20260508033049 | 6 | 337 | 8.0 | 16.1 | 0.00 | 0.51 | 0.51 | 70 | 1005.7 |
| 20260508031548 | 6 | 290 | 8.0 | 14.5 | 0.00 | 0.51 | 0.51 | 66 | 1005.4 |
| 20260508030045 | 7 | 307 | 6.4 | 12.9 | 0.00 | 0.84 | 0.51 | 64 | 1005.4 |
| 20260508024549 | 7 | 326 | 6.4 | 16.1 | 0.00 | 0.84 | 0.51 | 65 | 1005.3 |
| 20260508023043 | 7 | 6 | 8.0 | 14.5 | 0.00 | 0.84 | 0.51 | 65 | 1005.0 |
| 20260508021541 | 7 | 6 | 6.4 | 11.3 | 0.00 | 0.84 | 0.51 | 65 | 1005.2 |
| 20260508020039 | 8 | 31 | 6.4 | 16.1 | 0.00 | 1.37 | 0.51 | 67 | 1005.3 |
| 20260508014542 | 8 | 324 | 8.0 | 19.3 | 0.00 | 1.37 | 0.51 | 67 | 1005.4 |
| 20260508013042 | 8 | 314 | 11.3 | 20.9 | 0.00 | 1.37 | 0.51 | 66 | 1005.4 |
| 20260508011537 | 9 | 6 | 11.3 | 24.1 | 0.00 | 1.37 | 0.51 | 66 | 1005.0 |
| 20260508010037 | 9 | 319 | 12.9 | 22.5 | 0.00 | 1.85 | 0.51 | 71 | 1004.7 |
| 20260508004536 | 8 | 320 | 8.0 | 16.1 | 0.00 | 1.85 | 0.51 | 79 | 1004.6 |
| 20260508003034 | 9 | 320 | 8.0 | 14.5 | 0.00 | 1.85 | 0.51 | 81 | 1004.4 |
| 20260508001534 | 10 | 283 | 9.7 | 16.1 | 0.00 | 1.85 | 0.51 | 82 | 1004.2 |
| 20260508000032 | 10 | 260 | 4.8 | 14.5 | 0.00 | 2.18 | 0.51 | 79 | 1004.0 |
| 20260507234532 | 10 | 260 | 6.4 | 12.9 | 0.00 | 2.18 | 0.51 | 79 | 1003.7 |
| 20260507233040 | 11 | 219 | 6.4 | 12.9 | 0.00 | 2.18 | 0.51 | 77 | 1003.4 |
| 20260507231536 | 11 | 196 | 8.0 | 11.3 | 0.00 | 2.18 | 0.51 | 77 | 1003.2 |
| 20260507230030 | 11 | 242 | 8.0 | 14.5 | 0.00 | 2.29 | 0.51 | 75 | 1003.0 |
| 20260507224537 | 12 | 227 | 6.4 | 11.3 | 0.00 | 2.29 | 0.51 | 72 | 1002.9 |
| 20260507223033 | 12 | 157 | 6.4 | 16.1 | 0.00 | 2.29 | 0.51 | 72 | 1002.6 |
| 20260507221536 | 12 | 239 | 4.8 | 9.7 | 0.00 | 2.29 | 0.51 | 73 | 1002.7 |
| 20260507220027 | 12 | 216 | 9.7 | 19.3 | 0.00 | 2.36 | 0.51 | 70 | 1002.7 |
| 20260507214527 | 12 | 225 | 6.4 | 19.3 | 0.00 | 2.36 | 0.51 | 72 | 1002.7 |
| 20260507213029 | 12 | 183 | 8.0 | 22.5 | 0.00 | 2.36 | 0.51 | 72 | 1002.7 |
| 20260507211527 | 12 | 152 | 4.8 | 19.3 | 0.00 | 2.36 | 0.51 | 73 | 1002.9 |
| 20260507210025 | 12 | 153 | 6.4 | 19.3 | 0.00 | 2.36 | 0.51 | 73 | 1002.8 |
| 20260507204525 | 13 | 199 | 12.9 | 20.9 | 0.00 | 2.36 | 0.51 | 73 | 1002.7 |
| 20260507203032 | 12 | 166 | 9.7 | 19.3 | 0.00 | 2.36 | 0.51 | 72 | 1002.7 |
| 20260507201527 | 13 | 217 | 9.7 | 22.5 | 0.00 | 2.36 | 0.51 | 71 | 1002.7 |
| 20260507200022 | 13 | 206 | 11.3 | 25.7 | 0.00 | 2.36 | 0.51 | 73 | 1002.9 |
| 20260507194522 | 13 | 190 | 11.3 | 24.1 | 0.00 | 2.36 | 0.51 | 72 | 1002.9 |
| 20260507193023 | 13 | 201 | 12.9 | 27.4 | 0.00 | 2.36 | 0.51 | 70 | 1002.9 |
| 20260507191521 | 14 | 154 | 8.0 | 27.4 | 0.00 | 2.36 | 0.51 | 69 | 1002.9 |
| 20260507190022 | 13 | 184 | 11.3 | 19.3 | 0.00 | 2.36 | 0.51 | 67 | 1003.1 |
| 20260507184520 | 13 | 217 | 11.3 | 29.0 | 0.00 | 2.36 | 0.51 | 71 | 1003.2 |
| 20260507183020 | 15 | 173 | 9.7 | 25.7 | 0.00 | 2.36 | 0.51 | 68 | 1003.3 |
| 20260507181524 | 14 | 187 | 17.7 | 29.0 | 0.00 | 2.36 | 0.51 | 71 | 1003.3 |
| 20260507180024 | 13 | 210 | 11.3 | 25.7 | 0.00 | 2.36 | 0.51 | 70 | 1003.4 |
| 20260507174520 | 13 | 189 | 16.1 | 27.4 | 0.00 | 2.36 | 0.51 | 73 | 1003.6 |
| 20260507173029 | 15 | 224 | 11.3 | 19.3 | 0.00 | 2.36 | 0.51 | 64 | 1003.3 |
| 20260507171516 | 15 | 266 | 17.7 | 22.5 | 0.00 | 2.36 | 0.51 | 64 | 1003.3 |
| 20260507170016 | 15 | 267 | 11.3 | 19.3 | 0.00 | 2.36 | 0.51 | 64 | 1003.3 |
| 20260507164512 | 14 | 116 | 9.7 | 17.7 | 0.00 | 2.36 | 0.51 | 66 | 1003.5 |
| 20260507163012 | 13 | 174 | 11.3 | 17.7 | 0.00 | 2.36 | 0.51 | 70 | 1003.7 |
| 20260507161511 | 14 | 173 | 4.8 | 17.7 | 0.00 | 2.36 | 0.51 | 72 | 1003.7 |
| 20260507160010 | 13 | 189 | 4.8 | 12.9 | 0.00 | 2.36 | 0.51 | 73 | 1003.9 |
| 20260507154509 | 13 | 194 | 8.0 | 16.1 | 0.00 | 2.36 | 0.51 | 69 | 1004.2 |
| 20260507153007 | 13 | 151 | 3.2 | 11.3 | 0.00 | 2.36 | 0.51 | 72 | 1004.2 |
| 20260507151505 | 13 | 252 | 9.7 | 14.5 | 0.00 | 2.36 | 0.51 | 73 | 1004.4 |
| 20260507150007 | 13 | 248 | 8.0 | 17.7 | 0.00 | 2.36 | 0.51 | 74 | 1004.4 |
| 20260507144519 | 12 | 240 | 8.0 | 12.9 | 0.00 | 2.36 | 0.51 | 76 | 1004.5 |
| 20260507143003 | 12 | 248 | 8.0 | 19.3 | 0.00 | 2.36 | 0.51 | 77 | 1004.5 |
| 20260507141503 | 12 | 218 | 8.0 | 16.1 | 0.00 | 2.36 | 0.51 | 76 | 1004.7 |
| 20260507140002 | 12 | 264 | 6.4 | 19.3 | 0.00 | 2.36 | 0.51 | 77 | 1004.8 |
| 20260507134609 | 12 | 292 | 9.7 | 16.1 | 0.00 | 2.36 | 0.51 | 77 | 1004.8 |
| 20260507133133 | 12 | 241 | 6.4 | 20.9 | 0.00 | 2.36 | 0.51 | 83 | 1005.1 |
| 20260507131557 | 11 | 314 | 9.7 | 27.4 | 0.00 | 2.36 | 0.51 | 87 | 1005.4 |
| 20260507130106 | 11 | 305 | 8.0 | 16.1 | 0.00 | 2.36 | 0.51 | 86 | 1005.0 |
| 20260507124554 | 10 | 318 | 6.4 | 16.1 | 0.00 | 2.36 | 0.51 | 85 | 1005.2 |
| 20260507123052 | 10 | 314 | 8.0 | 19.3 | 0.00 | 2.36 | 0.51 | 90 | 1004.8 |